Chickasha, OK

7:27 PM CDT on August 28, 2016 (GMT -0500)
Chickasha Municipal

Weather History for KCHK - January, 2013

Change the Weather History Date:

Friday, January 11, 2013

  Actual Average Record
Temperature  
Mean Temperature 57 °F -  
Max Temperature 68 °F 44 °F 71 °F (1990)
Min Temperature 46 °F 24 °F 2 °F (1962)
Degree Days  
Heating Degree Days 8    
Growing Degree Days 7 (Base 50)    
Moisture  
Dew Point 47 °F    
Average Humidity 77    
Maximum Humidity 100    
Minimum Humidity 52    
Precipitation  
Precipitation 0.00 in - - ()
Sea Level Pressure  
Sea Level Pressure 29.76 in    
Wind  
Wind Speed 10 mph (SSW)    
Max Wind Speed 22 mph    
Max Gust Speed 36 mph    
Visibility 10 miles    
Events      
Averages and records for this station are not official NWS values.
T = Trace of Precipitation, MM = Missing Value Source: NWS Daily Summary

Daily Weather History Graph

Daily Weather History Graph

Search for Another Location

Airport or City:

Trip Planner

Search our weather history database for the weather conditions in past years. The results will help you decide how hot, cold, wet, or windy it might be!

Date:

Astronomy

Jan. 11, 2013 Rise Set
Actual Time 7:40 AM CST 5:39 PM CST
Civil Twilight 7:12 AM CST 6:07 PM CST
Nautical Twilight 6:41 AM CST 6:38 PM CST
Astronomical Twilight 6:10 AM CST 7:09 PM CST
Moon 7:16 AM CST (1/11) 5:57 PM CST (1/11)
Length of Visible Light 10h 54m
Length of Day
9h 59m
Waning Crescent, 0% of the Moon is Illuminated
Jan 11
Waning Crescent
Jan 11
New
Jan 18
First Quarter
Jan 26
Full
Feb 3
Last Quarter

Hourly Weather History & Observations

Time (CST) Temp. Windchill Dew Point Humidity Pressure Visibility Wind Dir Wind Speed Gust Speed Precip Events Conditions
12:15 AM 48.2 °F - 46.4 °F 93% 29.85 in 10.0 mi South 8.1 mph - N/A   Clear
12:35 AM 48.2 °F - 46.4 °F 93% 29.84 in 10.0 mi North 9.2 mph - N/A   Clear
12:55 AM 48.2 °F - 46.4 °F 93% 29.85 in 10.0 mi SSW 11.5 mph 17.3 mph N/A   Clear
1:15 AM 46.4 °F 42.4 °F 46.4 °F 100% 29.84 in 10.0 mi SSW 8.1 mph - N/A   Clear
1:35 AM 46.4 °F 42.4 °F 44.6 °F 93% 29.83 in 10.0 mi SSW 8.1 mph - N/A   Clear
1:55 AM 46.4 °F 41.5 °F 44.6 °F 93% 29.82 in 10.0 mi SSW 10.4 mph - N/A   Clear
2:15 AM 46.4 °F 41.5 °F 44.6 °F 93% 29.82 in 10.0 mi South 10.4 mph - N/A   Clear
2:35 AM 46.4 °F 41.9 °F 44.6 °F 93% 29.82 in 10.0 mi SSW 9.2 mph - N/A   Clear
2:55 AM 46.4 °F 40.7 °F 44.6 °F 93% 29.81 in 10.0 mi North 12.7 mph - N/A   Clear
3:15 AM 46.4 °F 40.7 °F 46.4 °F 100% 29.80 in 10.0 mi North 12.7 mph - N/A   Clear
3:35 AM 48.2 °F - 46.4 °F 93% 29.80 in 10.0 mi North 10.4 mph - N/A   Clear
3:55 AM 46.4 °F 41.9 °F 44.6 °F 93% 29.79 in 10.0 mi North 9.2 mph - N/A   Clear
4:15 AM 46.4 °F 41.9 °F 44.6 °F 93% 29.77 in 10.0 mi North 9.2 mph - N/A   Clear
4:35 AM 46.4 °F 41.5 °F 44.6 °F 93% 29.77 in 10.0 mi SW 10.4 mph - N/A   Clear
4:55 AM 46.4 °F 41.1 °F 44.6 °F 93% 29.77 in 10.0 mi South 11.5 mph - N/A   Clear
5:15 AM 46.4 °F 41.1 °F 44.6 °F 93% 29.77 in 10.0 mi SSW 11.5 mph 18.4 mph N/A   Clear
5:35 AM 46.4 °F 39.8 °F 42.8 °F 87% 29.75 in 10.0 mi SW 16.1 mph 23.0 mph N/A   Clear
6:15 AM 46.4 °F 42.4 °F 44.6 °F 93% 29.75 in 10.0 mi North 8.1 mph 17.3 mph N/A   Clear
6:35 AM 46.4 °F 42.9 °F 44.6 °F 93% 29.76 in 10.0 mi North 6.9 mph - N/A   Clear
6:55 AM 46.4 °F 42.9 °F 42.8 °F 87% 29.76 in 10.0 mi SSW 6.9 mph - N/A   Clear
7:15 AM 46.4 °F 41.5 °F 42.8 °F 87% 29.77 in 10.0 mi SSW 10.4 mph - N/A   Clear
7:35 AM 48.2 °F - 44.6 °F 87% 29.77 in 10.0 mi SSW 13.8 mph - N/A   Scattered Clouds
7:55 AM 46.4 °F 41.9 °F 42.8 °F 87% 29.78 in 10.0 mi SSW 9.2 mph 16.1 mph N/A   Scattered Clouds
8:15 AM 48.2 °F - 44.6 °F 87% 29.78 in 10.0 mi SW 6.9 mph - N/A   Clear
8:35 AM 48.2 °F - 44.6 °F 87% 29.80 in 10.0 mi South 3.5 mph - N/A   Scattered Clouds
8:55 AM 48.2 °F - 44.6 °F 87% 29.79 in 10.0 mi SSW 5.8 mph - N/A   Clear
9:15 AM 51.8 °F - 46.4 °F 82% 29.79 in 10.0 mi SSW 8.1 mph - N/A   Clear
9:35 AM 53.6 °F - 46.4 °F 77% 29.78 in 10.0 mi SSW 13.8 mph 19.6 mph N/A   Clear
9:55 AM 53.6 °F - 46.4 °F 77% 29.78 in 10.0 mi SSW 16.1 mph 20.7 mph N/A   Clear
10:15 AM 53.6 °F - 46.4 °F 77% 29.79 in 10.0 mi SSW 15.0 mph 24.2 mph N/A   Clear
10:35 AM 53.6 °F - 44.6 °F 72% 29.78 in - SSW 16.1 mph 25.3 mph N/A   Clear
10:55 AM 55.4 °F - 46.4 °F 72% 29.78 in - SSW 18.4 mph 35.7 mph N/A   Clear
11:15 AM 55.4 °F - 46.4 °F 72% 29.77 in 10.0 mi SSW 16.1 mph 24.2 mph N/A   Clear
11:35 AM 59.0 °F - 46.4 °F 63% 29.74 in 10.0 mi SSW 21.9 mph 26.5 mph N/A   Clear
11:55 AM 59.0 °F - 46.4 °F 63% 29.73 in - SSW 18.4 mph 25.3 mph N/A   Clear
12:15 PM 59.0 °F - 46.4 °F 63% 29.73 in - SSW 16.1 mph 24.2 mph N/A   Clear
12:35 PM 60.8 °F - 48.2 °F 63% 29.73 in - SSW 15.0 mph 24.2 mph N/A   Clear
12:55 PM 62.6 °F - 48.2 °F 59% 29.71 in - SSW 12.7 mph 19.6 mph N/A   Clear
1:15 PM 62.6 °F - 48.2 °F 59% 29.70 in - SSW 16.1 mph 21.9 mph N/A   Clear
1:55 PM 66.2 °F - 50.0 °F 56% 29.67 in - SSW 19.6 mph 32.2 mph N/A   Clear
2:15 PM 66.2 °F - 50.0 °F 56% 29.68 in - SSW 13.8 mph 20.7 mph N/A   Clear
2:35 PM 68.0 °F - 51.8 °F 56% 29.67 in - SSW 12.7 mph 25.3 mph N/A   Clear
2:55 PM 68.0 °F - 50.0 °F 52% 29.67 in - SSW 17.3 mph 25.3 mph N/A   Clear
3:15 PM 68.0 °F - 51.8 °F 56% 29.67 in - SSW 17.3 mph 24.2 mph N/A   Clear
3:35 PM 68.0 °F - 51.8 °F 56% 29.67 in - SSW 13.8 mph - N/A   Clear
3:55 PM 68.0 °F - 51.8 °F 56% 29.68 in - SSW 12.7 mph 16.1 mph N/A   Clear
4:15 PM 68.0 °F - 51.8 °F 56% 29.67 in - South 11.5 mph - N/A   Clear
4:35 PM 68.0 °F - 51.8 °F 56% 29.68 in - SSW 10.4 mph - N/A   Clear
4:55 PM 68.0 °F - 51.8 °F 56% 29.68 in - SSW 9.2 mph - N/A   Clear
5:15 PM 66.2 °F - 51.8 °F 60% 29.68 in - South 6.9 mph - N/A   Clear
5:35 PM 62.6 °F - 50.0 °F 63% 29.69 in - South 8.1 mph - N/A   Clear
5:55 PM 62.6 °F - 48.2 °F 59% 29.70 in - South 9.2 mph - N/A   Clear
6:15 PM 60.8 °F - 46.4 °F 59% 29.71 in - South 8.1 mph - N/A   Clear
6:35 PM 59.0 °F - 48.2 °F 67% 29.72 in - South 5.8 mph - N/A   Clear
6:55 PM 59.0 °F - 48.2 °F 67% 29.72 in - South 6.9 mph - N/A   Clear
7:15 PM 59.0 °F - 50.0 °F 72% 29.72 in - SSE 6.9 mph - N/A   Clear
7:35 PM 59.0 °F - 50.0 °F 72% 29.73 in - SSE 5.8 mph - N/A   Clear
7:55 PM 59.0 °F - 50.0 °F 72% 29.73 in - SSE 4.6 mph - N/A   Clear
8:15 PM 59.0 °F - 50.0 °F 72% 29.74 in - SSE 4.6 mph - N/A   Clear
8:35 PM 55.4 °F - 48.2 °F 77% 29.74 in - SE 5.8 mph - N/A   Clear
8:55 PM 55.4 °F - 50.0 °F 82% 29.75 in - SE 4.6 mph - N/A   Clear
9:15 PM 55.4 °F - 50.0 °F 82% 29.77 in - SE 3.5 mph - N/A   Clear
9:35 PM 55.4 °F - 50.0 °F 82% 29.76 in - East 3.5 mph - N/A   Clear
9:55 PM 55.4 °F - 51.8 °F 88% 29.77 in - SE 3.5 mph - N/A   Unknown
10:15 PM 59.0 °F - 51.8 °F 77% 29.77 in - Calm Calm - N/A   Clear
10:35 PM 53.6 °F - 50.0 °F 88% 29.80 in - NNW 4.6 mph 9.2 mph N/A   Clear
10:55 PM 53.6 °F - 50.0 °F 88% 29.81 in - NW 3.5 mph - N/A   Unknown
11:15 PM 53.6 °F - 48.2 °F 82% 29.82 in - NNW 6.9 mph - N/A   Clear
11:35 PM 53.6 °F - 44.6 °F 72% 29.83 in - NNW 10.4 mph - N/A   Clear
11:55 PM 53.6 °F - 42.8 °F 67% 29.85 in - NNW 8.1 mph - N/A   Clear